Starlink 3637

operational
NORAD ID: 51799 Int'l Des: 2022-017 Owner: SPXS Country: US Constellation: starlink
LEOCIRCULAR

关于 Starlink 3637

正在加载描述...

实时位置

正在加载3D地球...

即将过境

高度历史

Altitude vs Time

uPlot chart will show altitude changes over time

两行轨道根数

1 51799U 22017AH 26036.69589154 .00000389 00000-0 42535-4 0 9990
2 51799 53.2163 132.7482 0001666 78.9074 281.2106 15.08852524219095
Epoch: Feb 5, 2026 • Age: 9 hours

当前状态

高度 547.8 km
速度 7.59 km/s
星下点 -25.05°S, 171.45°E
发射日期 Feb 25, 2022
运行时间 3.9 years
类型 internet

技术详情

分类 Payload
质量 297.00 kg
干质量 275.00 kg
总质量 297.00 kg
长度 0.20 m
直径 2.80 m
跨度 9.00 m
形状 Box + pan
制造商 SPXS
平台类型 Starlink
阶段状态 In Orbit
所有者/国家 SPXS/US

大型星座

Loading constellations...